Santa Maria, CA

4:59 PM PDT on August 24, 2016 (GMT -0700)
Santa Maria Public Airport / Captain G. Allan Hancock Field

Weather History for KSMX - February, 2013

Change the Weather History Date:

Tuesday, February 5, 2013

  Actual Average Record
Temperature  
Mean Temperature 48 °F 52 °F  
Max Temperature 54 °F 64 °F 80 °F (2001)
Min Temperature 41 °F 41 °F 27 °F (1985)
Degree Days  
Heating Degree Days 17 13  
Month to date heating degree days 61 65  
Since 1 July heating degree days 1375 1557  
Cooling Degree Days 0 0  
Month to date cooling degree days 0 0  
Year to date cooling degree days 0 0  
Moisture  
Dew Point 47 °F    
Average Humidity 89    
Maximum Humidity 100    
Minimum Humidity 77    
Precipitation  
Precipitation 0.00 in 0.11 in 1.55 in (1996)
Month to date precipitation 0.00 0.52  
Year to date precipitation 0.63 3.27  
Since 1 July precipitation 4.36  
Sea Level Pressure  
Sea Level Pressure 30.08 in    
Wind  
Wind Speed 4 mph (NNW)    
Max Wind Speed 20 mph    
Max Gust Speed 51 mph    
Visibility 5 miles    
Events Fog    
T = Trace of Precipitation, MM = Missing Value Source: NWS Daily Summary

Daily Weather History Graph

Daily Weather History Graph

Search for Another Location

Airport or City:

Trip Planner

Search our weather history database for the weather conditions in past years. The results will help you decide how hot, cold, wet, or windy it might be!

Date:

Astronomy

Feb. 05, 2013 Rise Set
Actual Time 6:56 AM PST 5:35 PM PST
Civil Twilight 6:30 AM PST 6:01 PM PST
Nautical Twilight 6:00 AM PST 6:31 PM PST
Astronomical Twilight 5:30 AM PST 7:01 PM PST
Moon 2:40 AM PST (2/5) 1:02 PM PST (2/5)
Length of Visible Light 11h 30m
Length of Day
10h 38m
Waning Crescent, 25% of the Moon is Illuminated
Feb 5
Waning Crescent
Feb 9
New
Feb 17
First Quarter
Feb 25
Full
Mar 4
Last Quarter

Hourly Weather History & Observations

Time (PST) Temp. Windchill Dew Point Humidity Pressure Visibility Wind Dir Wind Speed Gust Speed Precip Events Conditions
12:03 AM 48.2 °F - 48.2 °F 100% 30.08 in 0.2 mi West 4.6 mph - N/A Fog Fog
12:46 AM 50.0 °F - 48.2 °F 94% 30.07 in 0.2 mi Calm Calm - N/A Fog Fog
12:51 AM 50.0 °F - 48.9 °F 96% 30.08 in 0.2 mi Calm Calm - N/A Fog Fog
1:33 AM 50.0 °F - 48.2 °F 94% 30.06 in 0.8 mi Calm Calm - N/A   Mist
1:41 AM 50.0 °F - 48.2 °F 94% 30.06 in 1.2 mi Calm Calm - N/A   Overcast
1:49 AM 50.0 °F - 48.2 °F 94% 30.06 in 1.8 mi Calm Calm - N/A   Overcast
1:51 AM 50.0 °F - 50.0 °F 100% 30.07 in 1.8 mi Calm Calm - N/A   Overcast
2:08 AM 48.2 °F - 48.2 °F 100% 30.06 in 0.8 mi ENE 3.5 mph - N/A   Overcast
2:35 AM 48.2 °F - 48.2 °F 100% 30.06 in 1.0 mi Calm Calm - N/A   Overcast
2:51 AM 48.9 °F - 48.9 °F 100% 30.07 in 1.0 mi Calm Calm - N/A   Overcast
3:12 AM 48.2 °F - 48.2 °F 100% 30.05 in 1.5 mi Calm Calm - N/A   Overcast
3:37 AM 48.2 °F - 48.2 °F 100% 30.05 in 2.5 mi Calm Calm - N/A   Overcast
3:51 AM 48.9 °F - 48.0 °F 97% 30.06 in 2.0 mi North 3.5 mph - N/A   Overcast
4:06 AM 48.2 °F - 48.2 °F 100% 30.05 in 3.0 mi Calm Calm - N/A   Overcast
4:16 AM 48.2 °F - 48.2 °F 100% 30.05 in 2.0 mi WNW 4.6 mph - N/A   Overcast
4:51 AM 48.9 °F - 48.0 °F 97% 30.06 in 2.5 mi NNW 4.6 mph - N/A   Overcast
4:59 AM 48.2 °F - 48.2 °F 100% 30.05 in 4.0 mi North 4.6 mph - N/A   Overcast
5:51 AM 48.9 °F - 48.0 °F 97% 30.06 in 4.0 mi Calm Calm - N/A   Overcast
6:49 AM 48.2 °F - 46.4 °F 93% 30.06 in 7.0 mi NE 3.5 mph - N/A   Overcast
6:51 AM 48.0 °F - 46.0 °F 93% 30.07 in 7.0 mi ENE 3.5 mph - N/A   Overcast
7:51 AM 48.0 °F - 45.0 °F 89% 30.10 in 8.0 mi NE 4.6 mph - N/A   Overcast
8:51 AM 48.9 °F - 45.0 °F 86% 30.12 in 8.0 mi NE 3.5 mph - N/A   Overcast
9:06 AM 50.0 °F - 44.6 °F 82% 30.11 in 8.0 mi Calm Calm - N/A   Overcast
9:51 AM 50.0 °F - 46.0 °F 86% 30.13 in 7.0 mi ENE 3.5 mph - N/A   Overcast
10:51 AM 51.1 °F - 46.0 °F 83% 30.14 in 8.0 mi Calm Calm - N/A   Overcast
11:51 AM 53.1 °F - 46.0 °F 77% 30.12 in 8.0 mi Calm Calm - N/A   Overcast
12:51 PM 52.0 °F - 46.9 °F 83% 30.10 in 6.0 mi NW 8.1 mph - N/A   Haze
1:51 PM 53.1 °F - 46.9 °F 80% 30.08 in 8.0 mi Variable 6.9 mph - N/A   Overcast
2:51 PM 52.0 °F - 46.9 °F 83% 30.06 in 7.0 mi WSW 4.6 mph - N/A   Overcast
3:51 PM 52.0 °F - 46.0 °F 80% 30.07 in 9.0 mi WNW 10.4 mph - N/A   Overcast
4:51 PM 51.1 °F - 46.0 °F 83% 30.07 in 10.0 mi WNW 11.5 mph - N/A   Overcast
5:51 PM 51.1 °F - 46.0 °F 83% 30.07 in 10.0 mi WNW 5.8 mph - N/A   Overcast
6:51 PM 51.1 °F - 45.0 °F 80% 30.08 in 10.0 mi NW 5.8 mph - N/A   Overcast
7:51 PM 51.1 °F - 45.0 °F 80% 30.08 in 10.0 mi NNE 5.8 mph - N/A   Overcast
8:16 PM 51.8 °F - 46.4 °F 82% 30.07 in 10.0 mi Calm Calm - N/A   Overcast
8:51 PM 50.0 °F - 45.0 °F 83% 30.09 in 10.0 mi Calm Calm - N/A   Scattered Clouds
9:51 PM 43.0 °F 41.3 °F 42.1 °F 97% 30.10 in 7.0 mi WNW 3.5 mph - N/A   Clear
10:51 PM 43.0 °F 38.8 °F 42.1 °F 97% 30.10 in 7.0 mi NNW 6.9 mph - N/A   Clear
11:51 PM 41.0 °F 39.0 °F 39.9 °F 96% 30.09 in 7.0 mi WNW 3.5 mph - N/A   Clear